VLO6020 FHAW-SBSV

Flight info

Callsign VLO6020
Flight time 3h 3m
Altitude FL320
Route MELEM ONSEK AKNUT
Aircraft B703/H-VRDW/C

Departure

Time 2026-05-06 14:16
Airport RAF Ascension Island (FHAW)

Arrival

Time 2026-05-06 17:19
Airport Deputado Luiz Eduardo Magalhães International Airport (SBSV)
Time Latitude Longitude Altitude Speed Heading
2026-05-06 13:48 -7.96849 -14.40107 280 ft 0 kts 242°
2026-05-06 14:11 -7.96854 -14.40119 280 ft 4 kts 253°
2026-05-06 14:11 -7.96837 -14.40164 280 ft 10 kts 303°
2026-05-06 14:12 -7.96782 -14.40240 279 ft 16 kts 314°
2026-05-06 14:12 -7.96689 -14.40330 279 ft 21 kts 317°
2026-05-06 14:12 -7.96580 -14.40429 277 ft 19 kts 319°
2026-05-06 14:12 -7.96495 -14.40509 274 ft 15 kts 317°
2026-05-06 14:13 -7.96461 -14.40541 273 ft 1 kts 317°
2026-05-06 14:13 -7.96449 -14.40552 273 ft 3 kts 317°
2026-05-06 14:13 -7.96427 -14.40573 272 ft 8 kts 317°
2026-05-06 14:13 -7.96371 -14.40569 272 ft 12 kts 81°
2026-05-06 14:14 -7.96386 -14.40518 275 ft 0 kts 116°
2026-05-06 14:15 -7.96390 -14.40511 276 ft 12 kts 116°
2026-05-06 14:15 -7.96535 -14.40217 286 ft 83 kts 116°
2026-05-06 14:15 -7.96906 -14.39475 274 ft 152 kts 117°
2026-05-06 14:15 -7.97475 -14.38344 357 ft 203 kts 119°
2026-05-06 14:16 -7.98367 -14.37455 712 ft 170 kts 156°
2026-05-06 14:16 -7.99552 -14.37438 1193 ft 180 kts 195°
2026-05-06 14:16 -8.00545 -14.38266 1691 ft 198 kts 234°
2026-05-06 14:16 -8.00969 -14.39619 2193 ft 207 kts 253°
2026-05-06 14:17 -8.01220 -14.41056 2694 ft 209 kts 255°
2026-05-06 14:17 -8.01462 -14.42500 3194 ft 210 kts 255°
2026-05-06 14:17 -8.01708 -14.43966 3698 ft 212 kts 255°
2026-05-06 14:17 -8.01954 -14.45431 4198 ft 213 kts 255°
2026-05-06 14:18 -8.02201 -14.46906 4699 ft 214 kts 255°
2026-05-06 14:18 -8.02449 -14.48388 5199 ft 216 kts 255°
2026-05-06 14:18 -8.02701 -14.49888 5705 ft 222 kts 255°
2026-05-06 14:18 -8.02968 -14.51460 6222 ft 235 kts 255°
2026-05-06 14:19 -8.03250 -14.53125 6741 ft 247 kts 256°
2026-05-06 14:19 -8.03547 -14.54880 7258 ft 260 kts 256°
2026-05-06 14:19 -8.03856 -14.56712 7772 ft 272 kts 256°
2026-05-06 14:19 -8.04180 -14.58629 8285 ft 284 kts 256°
2026-05-06 14:20 -8.04517 -14.60626 8796 ft 295 kts 256°
2026-05-06 14:20 -8.04863 -14.62686 9302 ft 301 kts 256°
2026-05-06 14:20 -8.05212 -14.64770 9802 ft 304 kts 257°
2026-05-06 14:20 -8.05563 -14.66872 10302 ft 306 kts 257°
2026-05-06 14:21 -8.05919 -14.69003 10806 ft 308 kts 257°
2026-05-06 14:21 -8.06275 -14.71130 11306 ft 310 kts 257°
2026-05-06 14:21 -8.06633 -14.73275 11807 ft 312 kts 257°
2026-05-06 14:21 -8.06993 -14.75432 12307 ft 314 kts 257°
2026-05-06 14:22 -8.07355 -14.77603 12806 ft 316 kts 257°
2026-05-06 14:22 -8.07720 -14.79791 13307 ft 318 kts 257°
2026-05-06 14:22 -8.08087 -14.81990 13806 ft 320 kts 257°
2026-05-06 14:22 -8.08459 -14.84221 14310 ft 323 kts 257°
2026-05-06 14:23 -8.08831 -14.86454 14810 ft 325 kts 257°
2026-05-06 14:23 -8.09206 -14.88702 15311 ft 327 kts 257°
2026-05-06 14:23 -8.09582 -14.90962 15810 ft 329 kts 257°
2026-05-06 14:23 -8.09962 -14.93239 16310 ft 332 kts 257°
2026-05-06 14:24 -8.10344 -14.95537 16811 ft 334 kts 257°
2026-05-06 14:24 -8.10730 -14.97855 17314 ft 341 kts 257°
2026-05-06 14:24 -8.11129 -15.00247 17823 ft 348 kts 257°
2026-05-06 14:24 -8.11534 -15.02672 18328 ft 355 kts 257°
2026-05-06 14:25 -8.11946 -15.05148 18833 ft 362 kts 257°
2026-05-06 14:25 -8.12365 -15.07665 19336 ft 369 kts 257°
2026-05-06 14:25 -8.12791 -15.10222 19839 ft 374 kts 257°
2026-05-06 14:25 -8.13224 -15.12822 20341 ft 380 kts 257°
2026-05-06 14:26 -8.13661 -15.15457 20843 ft 385 kts 257°
2026-05-06 14:26 -8.14108 -15.18144 21349 ft 389 kts 257°
2026-05-06 14:26 -8.14555 -15.20838 21850 ft 392 kts 257°
2026-05-06 14:26 -8.15005 -15.23552 22350 ft 395 kts 257°
2026-05-06 14:27 -8.15458 -15.26286 22850 ft 398 kts 257°
2026-05-06 14:27 -8.15912 -15.29031 23349 ft 399 kts 258°
2026-05-06 14:27 -8.16368 -15.31787 23847 ft 400 kts 258°
2026-05-06 14:27 -8.16828 -15.34564 24349 ft 407 kts 258°
2026-05-06 14:28 -8.17302 -15.37423 24858 ft 415 kts 258°
2026-05-06 14:28 -8.17780 -15.40308 25361 ft 422 kts 258°
2026-05-06 14:28 -8.18264 -15.43236 25864 ft 427 kts 258°
2026-05-06 14:28 -8.18753 -15.46196 26365 ft 432 kts 258°
2026-05-06 14:29 -8.19247 -15.49185 26865 ft 435 kts 258°
2026-05-06 14:29 -8.19744 -15.52194 27365 ft 437 kts 258°
2026-05-06 14:29 -8.20242 -15.55213 27863 ft 439 kts 258°
2026-05-06 14:29 -8.20744 -15.58265 28356 ft 440 kts 258°
2026-05-06 14:30 -8.21248 -15.61317 28623 ft 446 kts 258°
2026-05-06 14:30 -8.21758 -15.64412 28876 ft 451 kts 258°
2026-05-06 14:30 -8.22273 -15.67539 29128 ft 456 kts 258°
2026-05-06 14:30 -8.22793 -15.70695 29380 ft 459 kts 258°
2026-05-06 14:31 -8.23315 -15.73872 29630 ft 462 kts 258°
2026-05-06 14:31 -8.23839 -15.77062 29880 ft 464 kts 258°
2026-05-06 14:31 -8.24370 -15.80292 30132 ft 466 kts 258°
2026-05-06 14:31 -8.24900 -15.83523 30225 ft 471 kts 258°
2026-05-06 14:32 -8.25982 -15.90107 30293 ft 483 kts 258°
2026-05-06 14:32 -8.27085 -15.96829 30359 ft 492 kts 258°
2026-05-06 14:33 -8.28207 -16.03681 30423 ft 499 kts 258°
2026-05-06 14:33 -8.29339 -16.10605 30486 ft 505 kts 258°
2026-05-06 14:34 -8.30482 -16.17601 30549 ft 510 kts 258°
2026-05-06 14:34 -8.31629 -16.24636 30765 ft 510 kts 258°
2026-05-06 14:35 -8.32206 -16.28178 30900 ft 510 kts 258°
2026-05-06 14:35 -8.32778 -16.31695 31034 ft 509 kts 258°
2026-05-06 14:35 -8.33349 -16.35201 31170 ft 509 kts 258°
2026-05-06 14:35 -8.33919 -16.38711 31308 ft 509 kts 258°
2026-05-06 14:36 -8.34489 -16.42220 31447 ft 509 kts 258°
2026-05-06 14:36 -8.35059 -16.45730 31589 ft 508 kts 258°
2026-05-06 14:36 -8.35627 -16.49228 31732 ft 508 kts 258°
2026-05-06 14:36 -8.36200 -16.52758 31879 ft 508 kts 258°
2026-05-06 14:37 -8.36767 -16.56258 32026 ft 507 kts 258°
2026-05-06 14:37 -8.37333 -16.59754 32173 ft 507 kts 258°
2026-05-06 14:37 -8.37900 -16.63254 32321 ft 507 kts 258°
2026-05-06 14:37 -8.38465 -16.66748 32467 ft 506 kts 258°
2026-05-06 14:38 -8.39031 -16.70242 32613 ft 506 kts 258°
2026-05-06 14:38 -8.39595 -16.73732 32759 ft 506 kts 258°
2026-05-06 14:38 -8.40162 -16.77246 32905 ft 506 kts 258°
2026-05-06 14:38 -8.40726 -16.80734 33050 ft 505 kts 258°
2026-05-06 14:39 -8.41287 -16.84215 33175 ft 506 kts 258°
2026-05-06 14:39 -8.41853 -16.87719 33208 ft 508 kts 258°
2026-05-06 14:39 -8.42989 -16.94763 33211 ft 512 kts 258°
2026-05-06 14:40 -8.44134 -17.01871 33211 ft 516 kts 258°
2026-05-06 14:40 -8.45282 -17.09009 33211 ft 519 kts 258°
2026-05-06 14:41 -8.46435 -17.16184 33211 ft 521 kts 258°
2026-05-06 14:41 -8.47591 -17.23388 33211 ft 523 kts 258°
2026-05-06 14:42 -8.48751 -17.30630 33210 ft 524 kts 258°
2026-05-06 14:42 -8.49909 -17.37865 33210 ft 525 kts 258°
2026-05-06 14:43 -8.51068 -17.45113 33210 ft 525 kts 258°
2026-05-06 14:43 -8.52230 -17.52398 33210 ft 526 kts 259°
2026-05-06 14:44 -8.53388 -17.59655 33210 ft 526 kts 259°
2026-05-06 14:45 -8.55124 -17.70563 33210 ft 527 kts 259°
2026-05-06 14:45 -8.56283 -17.77856 33210 ft 527 kts 259°
2026-05-06 14:46 -8.57438 -17.85129 33210 ft 527 kts 259°
2026-05-06 14:46 -8.58592 -17.92405 33210 ft 527 kts 259°
2026-05-06 14:47 -8.59745 -17.99686 33210 ft 527 kts 259°
2026-05-06 14:47 -8.60902 -18.07004 33210 ft 527 kts 259°
2026-05-06 14:48 -8.62050 -18.14270 33210 ft 527 kts 259°
2026-05-06 14:48 -8.63199 -18.21553 33210 ft 527 kts 259°
2026-05-06 14:49 -8.64351 -18.28862 33210 ft 527 kts 259°
2026-05-06 14:49 -8.65499 -18.36157 33210 ft 527 kts 259°
2026-05-06 14:50 -8.66641 -18.43427 33210 ft 527 kts 259°
2026-05-06 14:50 -8.67786 -18.50718 33210 ft 527 kts 259°
2026-05-06 14:51 -8.68933 -18.58032 33210 ft 527 kts 259°
2026-05-06 14:51 -8.70074 -18.65319 33210 ft 527 kts 259°
2026-05-06 14:52 -8.71212 -18.72600 33210 ft 527 kts 259°
2026-05-06 14:52 -8.72356 -18.79921 33210 ft 527 kts 259°
2026-05-06 14:53 -8.73492 -18.87206 33210 ft 527 kts 259°
2026-05-06 14:53 -8.74629 -18.94502 33210 ft 528 kts 259°
2026-05-06 14:54 -8.75763 -19.01790 33210 ft 528 kts 259°
2026-05-06 14:54 -8.76901 -19.09112 33210 ft 528 kts 259°
2026-05-06 14:55 -8.78032 -19.16402 33210 ft 528 kts 259°
2026-05-06 14:55 -8.79162 -19.23693 33210 ft 528 kts 259°
2026-05-06 14:56 -8.80296 -19.31017 33210 ft 528 kts 259°
2026-05-06 14:56 -8.81423 -19.38307 33210 ft 528 kts 259°
2026-05-06 14:57 -8.82550 -19.45602 33210 ft 528 kts 259°
2026-05-06 14:57 -8.83676 -19.52904 33210 ft 528 kts 259°
2026-05-06 14:58 -8.84803 -19.60225 33210 ft 528 kts 259°
2026-05-06 14:58 -8.85926 -19.67522 33210 ft 528 kts 259°
2026-05-06 14:59 -8.87047 -19.74820 33210 ft 528 kts 259°
2026-05-06 14:59 -8.88170 -19.82145 33210 ft 528 kts 259°
2026-05-06 15:00 -8.89289 -19.89447 33210 ft 528 kts 259°
2026-05-06 15:00 -8.90407 -19.96751 33210 ft 528 kts 259°
2026-05-06 15:01 -8.91523 -20.04054 33210 ft 528 kts 259°
2026-05-06 15:01 -8.92640 -20.11376 33210 ft 528 kts 259°
2026-05-06 15:02 -8.93754 -20.18681 33210 ft 528 kts 259°
2026-05-06 15:02 -8.94865 -20.25984 33210 ft 528 kts 259°
2026-05-06 15:03 -8.95980 -20.33316 33210 ft 528 kts 259°
2026-05-06 15:03 -8.97089 -20.40623 33210 ft 528 kts 259°
2026-05-06 15:04 -8.98196 -20.47924 33210 ft 528 kts 259°
2026-05-06 15:04 -8.99304 -20.55239 33210 ft 528 kts 259°
2026-05-06 15:05 -9.00413 -20.62570 33210 ft 528 kts 259°
2026-05-06 15:05 -9.01516 -20.69874 33210 ft 528 kts 259°
2026-05-06 15:06 -9.02618 -20.77184 33210 ft 528 kts 259°
2026-05-06 15:06 -9.03724 -20.84524 33210 ft 528 kts 259°
2026-05-06 15:07 -9.04823 -20.91831 33210 ft 528 kts 259°
2026-05-06 15:07 -9.05921 -20.99140 33210 ft 528 kts 259°
2026-05-06 15:08 -9.07019 -21.06451 33210 ft 528 kts 259°
2026-05-06 15:08 -9.08119 -21.13794 33210 ft 528 kts 259°
2026-05-06 15:09 -9.09213 -21.21105 33210 ft 528 kts 259°
2026-05-06 15:09 -9.10307 -21.28424 33210 ft 528 kts 259°
2026-05-06 15:10 -9.11403 -21.35761 33210 ft 528 kts 259°
2026-05-06 15:10 -9.12494 -21.43078 33210 ft 528 kts 259°
2026-05-06 15:11 -9.13584 -21.50391 33210 ft 528 kts 259°
2026-05-06 15:11 -9.14674 -21.57720 33210 ft 528 kts 259°
2026-05-06 15:12 -9.15766 -21.65053 33210 ft 528 kts 259°
2026-05-06 15:12 -9.17314 -21.72268 33211 ft 526 kts 254°
2026-05-06 15:13 -9.19077 -21.79420 33210 ft 526 kts 253°
2026-05-06 15:13 -9.20858 -21.86602 33210 ft 526 kts 253°
2026-05-06 15:14 -9.22631 -21.93756 33210 ft 526 kts 253°
2026-05-06 15:14 -9.24401 -22.00907 33210 ft 526 kts 253°
2026-05-06 15:15 -9.26172 -22.08065 33210 ft 526 kts 253°
2026-05-06 15:15 -9.27947 -22.15246 33210 ft 527 kts 253°
2026-05-06 15:16 -9.29716 -22.22408 33210 ft 527 kts 253°
2026-05-06 15:16 -9.31483 -22.29567 33210 ft 527 kts 253°
2026-05-06 15:17 -9.33255 -22.36756 33210 ft 527 kts 253°
2026-05-06 15:17 -9.35018 -22.43917 33210 ft 527 kts 253°
2026-05-06 15:18 -9.36782 -22.51084 33210 ft 527 kts 253°
2026-05-06 15:18 -9.38543 -22.58247 33210 ft 527 kts 253°
2026-05-06 15:19 -9.40308 -22.65436 33210 ft 527 kts 254°
2026-05-06 15:19 -9.42068 -22.72605 33210 ft 527 kts 254°
2026-05-06 15:20 -9.43825 -22.79772 33210 ft 527 kts 254°
2026-05-06 15:20 -9.45586 -22.86962 33210 ft 527 kts 254°
2026-05-06 15:21 -9.47340 -22.94130 33210 ft 527 kts 254°
2026-05-06 15:21 -9.49093 -23.01300 33210 ft 527 kts 254°
2026-05-06 15:22 -9.50845 -23.08475 33210 ft 527 kts 254°
2026-05-06 15:22 -9.52600 -23.15669 33210 ft 527 kts 254°
2026-05-06 15:23 -9.54350 -23.22848 33210 ft 527 kts 254°
2026-05-06 15:23 -9.56099 -23.30025 33210 ft 527 kts 254°
2026-05-06 15:24 -9.57850 -23.37222 33210 ft 527 kts 254°
2026-05-06 15:24 -9.59595 -23.44400 33210 ft 527 kts 254°
2026-05-06 15:25 -9.61338 -23.51579 33210 ft 527 kts 254°
2026-05-06 15:25 -9.63078 -23.58749 33210 ft 527 kts 254°
2026-05-06 15:26 -9.64826 -23.65960 33210 ft 527 kts 254°
2026-05-06 15:26 -9.66567 -23.73148 33210 ft 527 kts 254°
2026-05-06 15:27 -9.68303 -23.80324 33210 ft 527 kts 254°
2026-05-06 15:27 -9.70045 -23.87532 33210 ft 527 kts 254°
2026-05-06 15:28 -9.71779 -23.94715 33210 ft 527 kts 254°
2026-05-06 15:28 -9.73514 -24.01905 33210 ft 527 kts 254°
2026-05-06 15:29 -9.75244 -24.09085 33210 ft 527 kts 254°
2026-05-06 15:29 -9.76981 -24.16299 33210 ft 527 kts 254°
2026-05-06 15:30 -9.78710 -24.23486 33210 ft 527 kts 254°
2026-05-06 15:30 -9.80439 -24.30679 33210 ft 527 kts 254°
2026-05-06 15:31 -9.82169 -24.37888 33206 ft 527 kts 254°
2026-05-06 15:31 -9.83896 -24.45087 33201 ft 527 kts 254°
2026-05-06 15:32 -9.86480 -24.55874 33201 ft 527 kts 254°
2026-05-06 15:32 -9.88207 -24.63092 33201 ft 527 kts 254°
2026-05-06 15:33 -9.89927 -24.70291 33201 ft 527 kts 254°
2026-05-06 15:33 -9.91646 -24.77490 33201 ft 527 kts 254°
2026-05-06 15:34 -9.93362 -24.84684 33201 ft 527 kts 254°
2026-05-06 15:34 -9.95083 -24.91907 33201 ft 527 kts 254°
2026-05-06 15:35 -9.96797 -24.99105 33201 ft 527 kts 254°
2026-05-06 15:35 -9.98509 -25.06304 33201 ft 527 kts 254°
2026-05-06 15:36 -10.00225 -25.13528 33201 ft 527 kts 254°
2026-05-06 15:36 -10.01936 -25.20736 33201 ft 527 kts 254°
2026-05-06 15:37 -10.03645 -25.27944 33200 ft 527 kts 254°
2026-05-06 15:37 -10.05350 -25.35143 33200 ft 527 kts 254°
2026-05-06 15:38 -10.07061 -25.42371 33200 ft 528 kts 254°
2026-05-06 15:38 -10.08764 -25.49578 33200 ft 528 kts 254°
2026-05-06 15:39 -10.10465 -25.56780 33200 ft 528 kts 254°
2026-05-06 15:39 -10.12172 -25.64016 33200 ft 528 kts 254°
2026-05-06 15:40 -10.13871 -25.71226 33200 ft 528 kts 254°
2026-05-06 15:40 -10.15568 -25.78433 33200 ft 528 kts 254°
2026-05-06 15:41 -10.17265 -25.85648 33200 ft 528 kts 254°
2026-05-06 15:41 -10.18965 -25.92885 33200 ft 528 kts 254°
2026-05-06 15:42 -10.20658 -26.00100 33200 ft 528 kts 254°
2026-05-06 15:42 -10.22350 -26.07315 33200 ft 528 kts 254°
2026-05-06 15:43 -10.24046 -26.14554 33200 ft 528 kts 254°
2026-05-06 15:43 -10.25734 -26.21770 33200 ft 528 kts 254°
2026-05-06 15:44 -10.27420 -26.28983 33196 ft 528 kts 254°
2026-05-06 15:44 -10.29106 -26.36204 33195 ft 528 kts 254°
2026-05-06 15:45 -10.30797 -26.43457 33195 ft 528 kts 254°
2026-05-06 15:45 -10.32479 -26.50675 33195 ft 528 kts 254°
2026-05-06 15:46 -10.34159 -26.57891 33195 ft 528 kts 254°
2026-05-06 15:46 -10.35844 -26.65141 33195 ft 528 kts 255°
2026-05-06 15:47 -10.37523 -26.72367 33195 ft 528 kts 255°
2026-05-06 15:47 -10.39199 -26.79593 33195 ft 528 kts 255°
2026-05-06 15:48 -10.40873 -26.86813 33194 ft 528 kts 255°
2026-05-06 15:48 -10.42552 -26.94067 33194 ft 528 kts 255°
2026-05-06 15:49 -10.44223 -27.01291 33194 ft 528 kts 255°
2026-05-06 15:49 -10.45895 -27.08527 33194 ft 528 kts 255°
2026-05-06 15:50 -10.47568 -27.15773 33194 ft 528 kts 255°
2026-05-06 15:50 -10.49235 -27.23005 33194 ft 528 kts 255°
2026-05-06 15:51 -10.50900 -27.30235 33194 ft 528 kts 255°
2026-05-06 15:51 -10.52565 -27.37471 33194 ft 528 kts 255°
2026-05-06 15:52 -10.54235 -27.44738 33194 ft 528 kts 255°
2026-05-06 15:52 -10.55893 -27.51961 33194 ft 528 kts 255°
2026-05-06 15:53 -10.57553 -27.59200 33194 ft 528 kts 255°
2026-05-06 15:53 -10.59217 -27.66462 33194 ft 528 kts 255°
2026-05-06 15:54 -10.60874 -27.73703 33194 ft 528 kts 255°
2026-05-06 15:54 -10.62528 -27.80939 33194 ft 528 kts 255°
2026-05-06 15:55 -10.64180 -27.88174 33194 ft 528 kts 255°
2026-05-06 15:55 -10.65839 -27.95448 33194 ft 528 kts 255°
2026-05-06 15:56 -10.67489 -28.02685 33194 ft 528 kts 255°
2026-05-06 15:56 -10.69137 -28.09928 33194 ft 528 kts 255°
2026-05-06 15:57 -10.70791 -28.17203 33194 ft 528 kts 255°
2026-05-06 15:57 -10.72436 -28.24443 33194 ft 528 kts 255°
2026-05-06 15:58 -10.74080 -28.31690 33194 ft 528 kts 255°
2026-05-06 15:58 -10.75723 -28.38937 33193 ft 528 kts 255°
2026-05-06 15:59 -10.77370 -28.46208 33193 ft 528 kts 255°
2026-05-06 15:59 -10.79010 -28.53461 33193 ft 528 kts 255°
2026-05-06 16:00 -10.80648 -28.60708 33193 ft 528 kts 255°
2026-05-06 16:00 -10.82290 -28.67983 33193 ft 528 kts 255°
2026-05-06 16:01 -10.83928 -28.75242 33193 ft 528 kts 255°
2026-05-06 16:01 -10.85562 -28.82492 33193 ft 528 kts 255°
2026-05-06 16:02 -10.87168 -28.89751 33193 ft 529 kts 256°
2026-05-06 16:02 -10.88636 -28.97081 33193 ft 529 kts 256°
2026-05-06 16:03 -10.90075 -29.04379 33193 ft 529 kts 256°
2026-05-06 16:03 -10.91513 -29.11688 33193 ft 529 kts 256°
2026-05-06 16:04 -10.92953 -29.19019 33193 ft 529 kts 256°
2026-05-06 16:04 -10.94388 -29.26331 33193 ft 529 kts 256°
2026-05-06 16:05 -10.95819 -29.33635 33193 ft 529 kts 256°
2026-05-06 16:05 -10.97251 -29.40953 33193 ft 529 kts 256°
2026-05-06 16:06 -10.98684 -29.48288 33193 ft 529 kts 256°
2026-05-06 16:06 -11.00112 -29.55601 33193 ft 529 kts 257°
2026-05-06 16:07 -11.01536 -29.62910 33193 ft 529 kts 257°
2026-05-06 16:07 -11.02965 -29.70249 33193 ft 529 kts 257°
2026-05-06 16:08 -11.04388 -29.77568 33193 ft 529 kts 257°
2026-05-06 16:08 -11.05807 -29.84877 33193 ft 529 kts 257°
2026-05-06 16:09 -11.07227 -29.92202 33193 ft 529 kts 257°
2026-05-06 16:09 -11.08650 -29.99548 33193 ft 529 kts 257°
2026-05-06 16:10 -11.10064 -30.06863 33193 ft 529 kts 257°
2026-05-06 16:10 -11.11478 -30.14184 33192 ft 529 kts 257°
2026-05-06 16:11 -11.12897 -30.21541 33192 ft 529 kts 257°
2026-05-06 16:11 -11.14305 -30.28853 33192 ft 529 kts 257°
2026-05-06 16:12 -11.15714 -30.36179 33192 ft 529 kts 257°
2026-05-06 16:12 -11.17119 -30.43499 33192 ft 529 kts 257°
2026-05-06 16:13 -11.18530 -30.50852 33192 ft 529 kts 257°
2026-05-06 16:13 -11.19933 -30.58177 33192 ft 530 kts 257°
2026-05-06 16:14 -11.21334 -30.65502 33192 ft 530 kts 257°
2026-05-06 16:14 -11.22739 -30.72860 33192 ft 530 kts 257°
2026-05-06 16:15 -11.24138 -30.80190 33192 ft 530 kts 257°
2026-05-06 16:15 -11.25536 -30.87532 33192 ft 530 kts 257°
2026-05-06 16:16 -11.26928 -30.94850 33192 ft 530 kts 257°
2026-05-06 16:16 -11.28326 -31.02208 33192 ft 530 kts 257°
2026-05-06 16:17 -11.29717 -31.09541 33192 ft 530 kts 257°
2026-05-06 16:17 -11.31107 -31.16878 33192 ft 530 kts 257°
2026-05-06 16:18 -11.32500 -31.24239 33192 ft 530 kts 257°
2026-05-06 16:18 -11.33885 -31.31574 33206 ft 529 kts 257°
2026-05-06 16:19 -11.35267 -31.38899 33229 ft 529 kts 257°
2026-05-06 16:19 -11.36648 -31.46231 33229 ft 529 kts 257°
2026-05-06 16:20 -11.38033 -31.53596 33229 ft 530 kts 257°
2026-05-06 16:20 -11.39412 -31.60935 33229 ft 530 kts 257°
2026-05-06 16:21 -11.40789 -31.68275 33229 ft 530 kts 257°
2026-05-06 16:21 -11.42169 -31.75642 33229 ft 530 kts 257°
2026-05-06 16:22 -11.43545 -31.82999 33229 ft 530 kts 257°
2026-05-06 16:22 -11.44915 -31.90331 33229 ft 530 kts 257°
2026-05-06 16:23 -11.46285 -31.97679 33230 ft 530 kts 257°
2026-05-06 16:23 -11.47659 -32.05054 33230 ft 530 kts 257°
2026-05-06 16:24 -11.49026 -32.12404 33230 ft 530 kts 257°
2026-05-06 16:24 -11.50389 -32.19745 33230 ft 530 kts 257°
2026-05-06 16:25 -11.51757 -32.27122 33230 ft 530 kts 257°
2026-05-06 16:25 -11.53121 -32.34489 33230 ft 530 kts 257°
2026-05-06 16:26 -11.54478 -32.41829 33230 ft 530 kts 257°
2026-05-06 16:26 -11.55837 -32.49186 33230 ft 530 kts 257°
2026-05-06 16:27 -11.57196 -32.56561 33230 ft 530 kts 257°
2026-05-06 16:27 -11.58551 -32.63920 33230 ft 530 kts 257°
2026-05-06 16:28 -11.59903 -32.71275 33230 ft 530 kts 257°
2026-05-06 16:28 -11.61259 -32.78661 33230 ft 530 kts 257°
2026-05-06 16:29 -11.62609 -32.86023 33231 ft 530 kts 257°
2026-05-06 16:29 -11.63956 -32.93382 33231 ft 530 kts 257°
2026-05-06 16:30 -11.65080 -32.99537 33231 ft 530 kts 257°
2026-05-06 16:30 -11.66648 -33.08127 33231 ft 530 kts 257°
2026-05-06 16:31 -11.67993 -33.15507 33231 ft 530 kts 257°
2026-05-06 16:31 -11.69330 -33.22854 33231 ft 530 kts 257°
2026-05-06 16:32 -11.70674 -33.30251 33231 ft 530 kts 257°
2026-05-06 16:32 -11.72010 -33.37619 33231 ft 530 kts 257°
2026-05-06 16:33 -11.73344 -33.44985 33231 ft 530 kts 257°
2026-05-06 16:34 -11.75348 -33.56065 33231 ft 531 kts 257°
2026-05-06 16:34 -11.76677 -33.63430 33231 ft 531 kts 257°
2026-05-06 16:35 -11.78004 -33.70798 33231 ft 531 kts 257°
2026-05-06 16:35 -11.79331 -33.78171 33231 ft 531 kts 257°
2026-05-06 16:36 -11.80659 -33.85568 33231 ft 531 kts 257°
2026-05-06 16:36 -11.81982 -33.92945 33231 ft 531 kts 257°
2026-05-06 16:37 -11.83303 -34.00321 33231 ft 531 kts 257°
2026-05-06 16:37 -11.84627 -34.07722 33231 ft 531 kts 257°
2026-05-06 16:38 -11.85945 -34.15102 33231 ft 531 kts 257°
2026-05-06 16:38 -11.87260 -34.22479 33231 ft 531 kts 257°
2026-05-06 16:39 -11.88572 -34.29851 33231 ft 531 kts 257°
2026-05-06 16:39 -11.89889 -34.37261 33231 ft 531 kts 257°
2026-05-06 16:40 -11.91199 -34.44643 33231 ft 531 kts 257°
2026-05-06 16:40 -11.92504 -34.52012 33369 ft 528 kts 257°
2026-05-06 16:41 -11.93808 -34.59383 33396 ft 529 kts 257°
2026-05-06 16:41 -11.95108 -34.66744 33397 ft 530 kts 257°
2026-05-06 16:42 -11.96410 -34.74122 33397 ft 530 kts 258°
2026-05-06 16:42 -11.97709 -34.81503 33398 ft 531 kts 258°
2026-05-06 16:43 -11.99014 -34.88924 33399 ft 531 kts 258°
2026-05-06 16:43 -12.00309 -34.96302 33399 ft 531 kts 258°
2026-05-06 16:44 -12.01604 -35.03688 33400 ft 531 kts 258°
2026-05-06 16:44 -12.02903 -35.11112 33401 ft 531 kts 258°
2026-05-06 16:45 -12.04195 -35.18508 33401 ft 532 kts 258°
2026-05-06 16:45 -12.05486 -35.25907 33402 ft 532 kts 258°
2026-05-06 16:46 -12.06776 -35.33313 33402 ft 532 kts 258°
2026-05-06 16:46 -12.08068 -35.40740 33402 ft 532 kts 258°
2026-05-06 16:47 -12.09354 -35.48151 33403 ft 532 kts 258°
2026-05-06 16:47 -12.10639 -35.55562 33403 ft 532 kts 258°
2026-05-06 16:48 -12.11921 -35.62967 33403 ft 532 kts 258°
2026-05-06 16:48 -12.13200 -35.70372 33403 ft 532 kts 258°
2026-05-06 16:49 -12.14484 -35.77810 33403 ft 532 kts 258°
2026-05-06 16:49 -12.15760 -35.85215 33403 ft 532 kts 258°
2026-05-06 16:50 -12.17035 -35.92629 33403 ft 532 kts 258°
2026-05-06 16:50 -12.18313 -36.00071 33403 ft 532 kts 258°
2026-05-06 16:51 -12.19584 -36.07483 33403 ft 532 kts 258°
2026-05-06 16:51 -12.20852 -36.14894 33403 ft 532 kts 258°
2026-05-06 16:52 -12.22119 -36.22304 33403 ft 532 kts 258°
2026-05-06 16:52 -12.23359 -36.29570 33402 ft 532 kts 258°
2026-05-06 16:53 -12.24622 -36.36982 33402 ft 532 kts 258°
2026-05-06 16:53 -12.25885 -36.44405 33402 ft 532 kts 258°
2026-05-06 16:54 -12.27149 -36.51844 33401 ft 532 kts 258°
2026-05-06 16:54 -12.28411 -36.59284 33401 ft 532 kts 258°
2026-05-06 16:55 -12.29666 -36.66687 33400 ft 532 kts 258°
2026-05-06 16:55 -12.30922 -36.74112 33400 ft 532 kts 258°
2026-05-06 16:56 -12.32181 -36.81558 33399 ft 532 kts 258°
2026-05-06 16:56 -12.34249 -36.88716 33397 ft 516 kts 245°
2026-05-06 16:56 -12.35609 -36.92003 33390 ft 493 kts 244°
2026-05-06 16:57 -12.36961 -36.95157 33391 ft 483 kts 243°
2026-05-06 16:57 -12.39690 -37.01455 33398 ft 485 kts 243°
2026-05-06 16:58 -12.42412 -37.07727 33414 ft 485 kts 243°
2026-05-06 16:58 -12.45144 -37.14028 33415 ft 486 kts 243°
2026-05-06 16:59 -12.47874 -37.20327 33334 ft 488 kts 243°
2026-05-06 16:59 -12.49253 -37.23512 32740 ft 486 kts 243°
2026-05-06 16:59 -12.50606 -37.26639 32118 ft 480 kts 243°
2026-05-06 16:59 -12.51942 -37.29730 31494 ft 474 kts 243°
2026-05-06 17:00 -12.53262 -37.32785 30871 ft 468 kts 243°
2026-05-06 17:00 -12.54567 -37.35806 30247 ft 463 kts 243°
2026-05-06 17:00 -12.55858 -37.38793 29625 ft 459 kts 243°
2026-05-06 17:00 -12.57137 -37.41755 29003 ft 455 kts 243°
2026-05-06 17:01 -12.58418 -37.44722 28375 ft 451 kts 243°
2026-05-06 17:01 -12.59675 -37.47637 27752 ft 447 kts 243°
2026-05-06 17:01 -12.60920 -37.50521 27130 ft 443 kts 243°
2026-05-06 17:01 -12.62152 -37.53380 26507 ft 439 kts 243°
2026-05-06 17:02 -12.63376 -37.56217 25884 ft 435 kts 243°
2026-05-06 17:02 -12.64589 -37.59032 25261 ft 431 kts 243°
2026-05-06 17:02 -12.65790 -37.61820 24637 ft 427 kts 243°
2026-05-06 17:02 -12.66986 -37.64595 24011 ft 424 kts 243°
2026-05-06 17:03 -12.68165 -37.67334 23388 ft 420 kts 243°
2026-05-06 17:03 -12.69335 -37.70052 22764 ft 416 kts 243°
2026-05-06 17:03 -12.70492 -37.72740 22142 ft 412 kts 243°
2026-05-06 17:03 -12.71640 -37.75408 21518 ft 409 kts 243°
2026-05-06 17:04 -12.72776 -37.78050 20896 ft 405 kts 243°
2026-05-06 17:04 -12.73902 -37.80669 20273 ft 402 kts 243°
2026-05-06 17:04 -12.75027 -37.83285 19646 ft 398 kts 243°
2026-05-06 17:04 -12.76134 -37.85862 19023 ft 395 kts 243°
2026-05-06 17:05 -12.77232 -37.88416 18399 ft 391 kts 243°
2026-05-06 17:05 -12.78320 -37.90949 17776 ft 388 kts 243°
2026-05-06 17:05 -12.79397 -37.93456 17154 ft 385 kts 243°
2026-05-06 17:05 -12.80467 -37.95949 16529 ft 381 kts 243°
2026-05-06 17:06 -12.81525 -37.98413 15907 ft 378 kts 243°
2026-05-06 17:06 -12.82583 -38.00879 15279 ft 375 kts 243°
2026-05-06 17:06 -12.83623 -38.03304 14656 ft 372 kts 243°
2026-05-06 17:06 -12.84654 -38.05707 14034 ft 368 kts 243°
2026-05-06 17:07 -12.85679 -38.08097 13409 ft 365 kts 243°
2026-05-06 17:07 -12.86695 -38.10467 12785 ft 362 kts 243°
2026-05-06 17:07 -12.87691 -38.12791 12421 ft 350 kts 243°
2026-05-06 17:07 -12.88634 -38.15003 12371 ft 329 kts 242°
2026-05-06 17:08 -12.89528 -38.17098 12289 ft 312 kts 242°
2026-05-06 17:08 -12.90384 -38.19102 11937 ft 305 kts 242°
2026-05-06 17:08 -12.91227 -38.21070 11477 ft 303 kts 242°
2026-05-06 17:08 -12.92076 -38.23050 10996 ft 301 kts 242°
2026-05-06 17:09 -12.92911 -38.24999 10518 ft 299 kts 242°
2026-05-06 17:09 -12.93741 -38.26935 10039 ft 297 kts 242°
2026-05-06 17:09 -12.94569 -38.28867 9556 ft 295 kts 242°
2026-05-06 17:09 -12.95395 -38.30795 9070 ft 293 kts 242°
2026-05-06 17:10 -12.96211 -38.32700 8583 ft 291 kts 242°
2026-05-06 17:10 -12.97018 -38.34585 8100 ft 289 kts 242°
2026-05-06 17:10 -12.97822 -38.36462 7766 ft 281 kts 242°
2026-05-06 17:10 -12.98560 -38.38199 7760 ft 252 kts 241°
2026-05-06 17:11 -12.99222 -38.39761 7706 ft 227 kts 240°
2026-05-06 17:11 -12.99832 -38.41194 7457 ft 215 kts 240°
2026-05-06 17:11 -13.00426 -38.42579 7062 ft 212 kts 240°
2026-05-06 17:11 -13.01022 -38.43965 6638 ft 211 kts 240°
2026-05-06 17:12 -13.01609 -38.45331 6216 ft 209 kts 240°
2026-05-06 17:12 -13.02194 -38.46689 5796 ft 208 kts 240°
2026-05-06 17:12 -13.02560 -38.48126 5346 ft 216 kts 268°
2026-05-06 17:12 -13.02068 -38.49556 5028 ft 211 kts 309°
2026-05-06 17:13 -13.00925 -38.50373 4728 ft 196 kts 350°
2026-05-06 17:13 -12.99610 -38.50478 4354 ft 186 kts
2026-05-06 17:13 -12.98367 -38.50451 4202 ft 168 kts
2026-05-06 17:13 -12.97229 -38.50420 3934 ft 161 kts
2026-05-06 17:14 -12.96120 -38.50385 3607 ft 159 kts
2026-05-06 17:14 -12.95018 -38.50342 3268 ft 155 kts 15°
2026-05-06 17:14 -12.94195 -38.49866 2971 ft 126 kts 71°
2026-05-06 17:14 -12.94076 -38.49039 2890 ft 120 kts 95°
2026-05-06 17:15 -12.94006 -38.48174 2754 ft 129 kts 88°
2026-05-06 17:15 -12.93851 -38.47176 2643 ft 147 kts 85°
2026-05-06 17:15 -12.93654 -38.46149 2443 ft 144 kts 84°
2026-05-06 17:15 -12.93457 -38.45162 2244 ft 142 kts 84°
2026-05-06 17:16 -12.93260 -38.44182 2054 ft 139 kts 84°
2026-05-06 17:16 -12.93066 -38.43211 1874 ft 140 kts 84°
2026-05-06 17:16 -12.92871 -38.42239 1693 ft 140 kts 84°
2026-05-06 17:16 -12.92675 -38.41261 1504 ft 139 kts 84°
2026-05-06 17:17 -12.92478 -38.40284 1332 ft 141 kts 85°
2026-05-06 17:17 -12.92283 -38.39310 1138 ft 139 kts 84°
2026-05-06 17:17 -12.92089 -38.38345 953 ft 138 kts 84°
2026-05-06 17:17 -12.91894 -38.37369 776 ft 140 kts 83°
2026-05-06 17:18 -12.91699 -38.36401 597 ft 139 kts 84°
2026-05-06 17:18 -12.91504 -38.35431 417 ft 139 kts 84°
2026-05-06 17:18 -12.91312 -38.34472 240 ft 136 kts 84°
2026-05-06 17:18 -12.91122 -38.33527 67 ft 132 kts 83°
2026-05-06 17:19 -12.90961 -38.32704 50 ft 98 kts 79°
2026-05-06 17:19 -12.90849 -38.32157 56 ft 60 kts 78°
2026-05-06 17:19 -12.90788 -38.31851 58 ft 29 kts 79°
2026-05-06 17:19 -12.90811 -38.31728 58 ft 12 kts 146°
2026-05-06 17:20 -12.90872 -38.31712 58 ft 7 kts 177°
2026-05-06 17:20 -12.90906 -38.31727 57 ft 5 kts 227°
2026-05-06 17:20 -12.90921 -38.31770 57 ft 8 kts 257°
2026-05-06 17:20 -12.90924 -38.31786 57 ft 10 kts 257°
2026-05-06 17:21 -12.90937 -38.31843 57 ft 13 kts 256°
2026-05-06 17:21 -12.90958 -38.31943 57 ft 16 kts 259°
2026-05-06 17:22 -12.90982 -38.32071 56 ft 20 kts 258°
2026-05-06 17:22 -12.91012 -38.32225 55 ft 24 kts 258°
2026-05-06 17:22 -12.91047 -38.32395 53 ft 23 kts 258°
2026-05-06 17:22 -12.91097 -38.32527 52 ft 18 kts 200°
2026-05-06 17:23 -12.91161 -38.32594 51 ft 12 kts 258°
2026-05-06 17:23 -12.91176 -38.32667 50 ft 9 kts 258°
2026-05-06 17:23 -12.91186 -38.32717 50 ft 6 kts 258°
2026-05-06 17:23 -12.91196 -38.32764 49 ft 8 kts 258°
2026-05-06 17:24 -12.91208 -38.32825 49 ft 10 kts 258°
2026-05-06 17:24 -12.91223 -38.32900 48 ft 12 kts 258°
2026-05-06 17:24 -12.91258 -38.32937 48 ft 5 kts 162°
2026-05-06 17:24 -12.91269 -38.32934 48 ft 1 kts 166°
2026-05-06 17:25 -12.91284 -38.32931 48 ft 4 kts 167°
2026-05-06 17:25 -12.91316 -38.32924 48 ft 4 kts 168°
2026-05-06 17:25 -12.91323 -38.32922 49 ft 0 kts 168°